Total_Precipitation_Accumulation
0.00 0.01 0.06 0.18 0.32 0.25 0.26 0.23 0.26 0.59 0.35 0.47 0.23 0.03 0.00 0.01 0.00 0.00 0.00 0.00 0.00 0.00 0.00 0.04 0.08 0.04 0.01 0.01 0.02 0.03 0.02 0.02 0.01 0.01 0.01 0.02 0.02 0.03 0.03 0.01 0.00 0.00 0.00 0.00
0.00 0.02 0.09 0.26 0.32 0.28 0.25 0.19 0.23 0.32 0.22 0.28 0.14 0.01 0.00 0.00 0.00 0.00 0.00 0.00 0.00 0.00 0.00 0.00 0.04 0.01 0.01 0.02 0.02 0.02 0.02 0.01 0.02 0.02 0.04 0.03 0.02 0.02 0.04 0.04 0.00 0.00 0.00 0.00
0.00 0.03 0.08 0.18 0.36 0.34 0.28 0.16 0.16 0.16 0.25 0.15 0.03 0.00 0.00 0.00 0.00 0.00 0.00 0.00 0.00 0.00 0.00 0.00 0.00 0.01 0.02 0.04 0.02 0.01 0.03 0.02 0.05 0.05 0.05 0.05 0.04 0.03 0.05 0.04 0.01 0.00 0.00 0.00
0.00 0.01 0.09 0.29 0.20 0.20 0.29 0.21 0.15 0.14 0.09 0.02 0.00 0.00 0.00 0.00 0.00 0.00 0.00 0.00 0.00 0.00 0.00 0.01 0.02 0.02 0.05 0.07 0.02 0.01 0.02 0.04 0.04 0.10 0.09 0.08 0.16 0.14 0.04 0.05 0.03 0.01 0.00 0.00
0.01 0.03 0.07 0.05 0.03 0.09 0.14 0.09 0.02 0.03 0.01 0.00 0.00 0.00 0.00 0.00 0.00 0.01 0.01 0.00 0.00 0.00 0.00 0.03 0.05 0.08 0.07 0.12 0.08 0.03 0.02 0.03 0.03 0.03 0.08 0.16 0.30 0.38 0.22 0.08 0.04 0.04 0.03 0.00
0.01 0.03 0.08 0.07 0.00 0.02 0.06 0.05 0.00 0.01 0.02 0.01 0.00 0.00 0.00 0.00 0.00 0.00 0.01 0.00 0.00 0.00 0.00 0.01 0.04 0.13 0.15 0.14 0.12 0.02 0.01 0.02 0.02 0.03 0.07 0.13 0.30 0.61 0.45 0.19 0.08 0.03 0.05 0.02
0.00 0.02 0.04 0.02 0.00 0.01 0.03 0.02 0.00 0.01 0.04 0.04 0.05 0.06 0.03 0.01 0.00 0.00 0.00 0.00 0.00 0.00 0.00 0.00 0.02 0.08 0.28 0.37 0.20 0.08 0.01 0.01 0.02 0.05 0.19 0.25 0.24 0.48 0.68 0.45 0.17 0.11 0.08 0.06
0.01 0.01 0.02 0.00 0.00 0.02 0.02 0.00 0.00 0.01 0.05 0.06 0.03 0.02 0.01 0.01 0.00 0.00 0.00 0.00 0.00 0.00 0.00 0.00 0.01 0.02 0.05 0.43 0.59 0.19 0.06 0.03 0.04 0.11 0.23 0.38 0.41 0.47 0.62 0.66 0.49 0.27 0.16 0.14
0.01 0.03 0.01 0.00 0.00 0.00 0.00 0.00 0.00 0.02 0.03 0.06 0.04 0.02 0.01 0.01 0.01 0.00 0.00 0.01 0.01 0.00 0.00 0.00 0.02 0.06 0.08 0.17 0.41 0.41 0.21 0.09 0.09 0.13 0.26 0.38 0.48 0.54 0.71 0.74 0.74 0.60 0.36 0.25
0.00 0.00 0.00 0.00 0.00 0.00 0.00 0.00 0.00 0.04 0.05 0.05 0.05 0.03 0.02 0.02 0.02 0.01 0.01 0.02 0.01 0.01 0.03 0.04 0.06 0.09 0.09 0.13 0.24 0.21 0.25 0.18 0.19 0.24 0.33 0.40 0.49 0.57 0.63 0.79 0.81 0.80 0.61 0.43
0.00 0.00 0.00 0.00 0.00 0.00 0.00 0.00 0.01 0.02 0.05 0.08 0.07 0.04 0.04 0.03 0.03 0.02 0.02 0.02 0.02 0.04 0.06 0.06 0.07 0.11 0.14 0.14 0.16 0.26 0.25 0.32 0.31 0.36 0.37 0.45 0.55 0.63 0.71 0.71 0.54 0.52 0.51 0.45
0.00 0.00 0.02 0.01 0.00 0.00 0.01 0.01 0.03 0.03 0.07 0.10 0.10 0.07 0.05 0.05 0.04 0.03 0.03 0.02 0.03 0.05 0.04 0.05 0.05 0.10 0.15 0.20 0.21 0.23 0.23 0.25 0.26 0.30 0.38 0.40 0.45 0.61 0.59 0.62 0.62 0.57 0.56 0.52
0.04 0.01 0.02 0.00 0.00 0.01 0.02 0.01 0.03 0.07 0.12 0.12 0.11 0.08 0.06 0.06 0.06 0.04 0.03 0.03 0.05 0.08 0.07 0.07 0.07 0.09 0.13 0.15 0.16 0.19 0.21 0.18 0.20 0.20 0.24 0.30 0.28 0.26 0.47 0.57 0.49 0.44 0.38 0.31
0.01 0.03 0.01 0.01 0.03 0.01 0.01 0.01 0.03 0.08 0.11 0.12 0.13 0.08 0.07 0.06 0.06 0.04 0.06 0.10 0.09 0.06 0.09 0.11 0.09 0.15 0.18 0.16 0.16 0.20 0.25 0.26 0.22 0.23 0.26 0.32 0.36 0.36 0.27 0.26 0.30 0.28 0.18 0.12
0.00 0.02 0.04 0.02 0.01 0.01 0.01 0.01 0.03 0.06 0.09 0.13 0.13 0.11 0.10 0.10 0.10 0.11 0.12 0.11 0.08 0.08 0.13 0.12 0.12 0.26 0.25 0.19 0.17 0.19 0.21 0.26 0.27 0.31 0.33 0.33 0.36 0.34 0.30 0.22 0.16 0.12 0.08 0.03
0.02 0.01 0.01 0.02 0.02 0.02 0.02 0.03 0.04 0.10 0.11 0.15 0.16 0.16 0.15 0.14 0.13 0.13 0.16 0.10 0.07 0.17 0.21 0.16 0.19 0.28 0.22 0.15 0.15 0.20 0.23 0.21 0.19 0.20 0.22 0.20 0.19 0.17 0.16 0.13 0.09 0.06 0.03 0.01
0.01 0.02 0.03 0.04 0.05 0.06 0.06 0.06 0.09 0.14 0.15 0.16 0.20 0.20 0.15 0.11 0.12 0.13 0.17 0.16 0.13 0.19 0.20 0.13 0.22 0.20 0.16 0.12 0.08 0.09 0.13 0.16 0.12 0.10 0.10 0.10 0.09 0.07 0.05 0.03 0.02 0.01 0.00 0.00
0.08 0.09 0.08 0.08 0.08 0.05 0.07 0.10 0.11 0.11 0.18 0.21 0.19 0.15 0.13 0.10 0.14 0.14 0.16 0.13 0.09 0.11 0.15 0.17 0.15 0.11 0.09 0.09 0.05 0.05 0.04 0.06 0.05 0.04 0.03 0.02 0.02 0.01 0.00 0.00 0.00 0.00 0.00 0.00
0.11 0.12 0.11 0.09 0.09 0.07 0.09 0.12 0.13 0.15 0.19 0.17 0.09 0.11 0.11 0.13 0.10 0.12 0.09 0.05 0.06 0.05 0.10 0.04 0.03 0.01 0.02 0.03 0.01 0.01 0.01 0.01 0.01 0.01 0.00 0.00 0.00 0.00 0.00 0.00 0.00 0.00 0.00 0.00
0.13 0.14 0.12 0.13 0.10 0.07 0.08 0.12 0.10 0.07 0.11 0.08 0.05 0.05 0.03 0.05 0.04 0.02 0.01 0.01 0.01 0.01 0.00 0.00 0.00 0.00 0.00 0.00 0.00 0.00 0.00 0.00 0.00 0.00 0.00 0.00 0.00 0.00 0.00 0.00 0.00 0.00 0.00 0.00
0.09 0.09 0.07 0.06 0.06 0.05 0.03 0.02 0.01 0.00 0.00 0.00 0.00 0.00 0.00 0.00 0.00 0.00 0.00 0.01 0.01 0.00 0.00 0.00 0.00 0.00 0.00 0.00 0.00 0.00 0.00 0.00 0.00 0.00 0.00 0.00 0.00 0.00 0.00 0.00 0.00 0.00 0.00 0.00
0.00 0.00 0.00 0.00 0.00 0.00 0.00 0.00 0.00 0.00 0.00 0.00 0.00 0.00 0.00 0.00 0.00 0.00 0.00 0.01 0.01 0.00 0.00 0.00 0.00 0.00 0.00 0.00 0.00 0.00 0.00 0.00 0.00 0.00 0.00 0.00 0.00 0.00 0.00 0.00 0.00 0.00 0.00 0.00
0.00 0.00 0.00 0.00 0.00 0.00 0.00 0.00 0.00 0.00 0.00 0.00 0.00 0.00 0.01 0.01 0.01 0.01 0.02 0.01 0.00 0.00 0.00 0.00 0.00 0.00 0.00 0.00 0.00 0.00 0.00 0.00 0.00 0.00 0.00 0.00 0.00 0.00 0.00 0.00 0.00 0.00 0.00 0.00
0.00 0.00 0.00 0.00 0.00 0.00 0.00 0.00 0.00 0.00 0.00 0.00 0.00 0.00 0.00 0.00 0.00 0.01 0.02 0.01 0.01 0.00 0.00 0.00 0.00 0.00 0.00 0.00 0.00 0.00 0.00 0.00 0.00 0.00 0.00 0.00 0.00 0.00 0.00 0.00 0.00 0.00 0.00 0.00
0.00 0.00 0.00 0.00 0.00 0.01 0.00 0.00 0.00 0.00 0.00 0.00 0.00 0.00 0.00 0.00 0.00 0.01 0.00 0.01 0.00 0.00 0.00 0.00 0.00 0.00 0.00 0.00 0.00 0.00 0.00 0.00 0.00 0.00 0.00 0.00 0.00 0.00 0.00 0.00 0.00 0.00 0.00 0.00
0.00 0.00 0.00 0.00 0.00 0.01 0.00 0.00 0.00 0.00 0.00 0.00 0.00 0.00 0.00 0.00 0.00 0.00 0.00 0.00 0.01 0.00 0.00 0.00 0.00 0.00 0.00 0.00 0.00 0.00 0.00 0.00 0.00 0.00 0.00 0.00 0.00 0.00 0.00 0.00 0.00 0.00 0.00 0.00
0.00 0.00 0.00 0.00 0.00 0.00 0.00 0.00 0.00 0.01 0.01 0.00 0.00 0.00 0.00 0.00 0.00 0.00 0.00 0.00 0.00 0.00 0.00 0.00 0.00 0.00 0.00 0.00 0.00 0.00 0.00 0.00 0.00 0.00 0.00 0.00 0.00 0.00 0.00 0.00 0.00 0.00 0.00 0.00